Location: ????????
(48.4751°N, 37.6926°E)
Time: 13:07:12
(UTC+00:00)

USA 234 - Pass Details

Date: 20 January 2021
Orbit: 1100 x 1107 km, 123.0° (Epoch: 25 February)

Event Time Altitude Azimuth Distance (km) Brightness Sun altitude
Exits shadow 15:05:28 11° 71° (ENE) 2,878 4.8 -9.3°
Maximum altitude 15:11:18 43° 4° (N) 1,516 3.9 -10.2°
Drops below altitude 10° 15:17:22 10° 296° (WNW) 2,968 6.2 -11.1°
Sets 15:19:59 0° 290° (WNW) 3,928 7.1 -11.6°
